Weather History for West Bend, WI

Change the Weather History Date:

Friday, November 30, 2012

  Actual Average Record
Temperature  
Mean Temperature 39 °F -  
Max Temperature 41 °F 37 °F 62 °F (1998)
Min Temperature 37 °F 22 °F -10 °F (1958)
Degree Days  
Heating Degree Days 26    
Moisture  
Dew Point 35 °F    
Average Humidity 85    
Maximum Humidity 93    
Minimum Humidity 76    
Precipitation  
Precipitation 0.00 in - - ()
Sea Level Pressure  
Sea Level Pressure 30.13 in    
Wind  
Wind Speed 10 mph (ENE)    
Max Wind Speed 15 mph    
Max Gust Speed 17 mph    
Visibility 7 miles    
Events      
Averages and records for this station are not official NWS values.
T = Trace of Precipitation, MM = Missing Value Source: NWS Daily Summary

Daily Weather History Graph

Daily Weather History Graph

Search for Another Location

Airport:

Trip Planner

Search our weather history database for the weather conditions in past years. The results will help you decide how hot, cold, wet, or windy it might be!

Date:

Astronomy

Nov. 30, 2012 Rise Set
Actual Time 7:04 AM CST 4:17 PM CST
Civil Twilight 6:32 AM CST 4:49 PM CST
Nautical Twilight 5:57 AM CST 5:25 PM CST
Astronomical Twilight 5:22 AM CST 5:59 PM CST
Moon 6:12 PM CST (11/30) 8:36 AM CST (11/30)
Length of Visible Light 10h 16m
Length of Day
9h 12m
Waning Gibbous, 96% of the Moon is Illuminated
Nov 30
Waning Gibbous
Dec 6
Last Quarter
Dec 13
New
Dec 19
First Quarter
Dec 28
Full

Hourly Weather History & Observations

Time (CST) Temp. Windchill Dew Point Humidity Pressure Visibility Wind Dir Wind Speed Gust Speed Precip Events Conditions
12:15 AM 39.2 °F 33.6 °F 35.6 °F 87% 30.10 in 7.0 mi NE 8.1 mph - N/A   Overcast
12:35 AM 39.2 °F 32.0 °F 35.6 °F 87% 30.10 in 5.0 mi NE 11.5 mph - N/A   Overcast
12:55 AM 39.2 °F 33.0 °F 35.6 °F 87% 30.09 in 5.0 mi NE 9.2 mph - N/A   Overcast
1:15 AM 39.2 °F 32.5 °F 35.6 °F 87% 30.09 in 7.0 mi NE 10.4 mph 17.3 mph N/A   Overcast
1:55 AM 39.2 °F 31.6 °F 35.6 °F 87% 30.10 in 7.0 mi NNE 12.7 mph 17.3 mph N/A   Overcast
2:15 AM 39.2 °F 33.0 °F 35.6 °F 87% 30.10 in 7.0 mi NE 9.2 mph - N/A   Overcast
2:35 AM 39.2 °F 32.0 °F 35.6 °F 87% 30.10 in 7.0 mi NNE 11.5 mph - N/A   Overcast
2:55 AM 39.2 °F 32.0 °F 35.6 °F 87% 30.10 in 7.0 mi NNE 11.5 mph - N/A   Overcast
3:15 AM 37.4 °F 29.8 °F 33.8 °F 87% 30.08 in 7.0 mi NE 11.5 mph - N/A   Overcast
3:35 AM 37.4 °F 30.3 °F 35.6 °F 93% 30.08 in 7.0 mi NE 10.4 mph 16.1 mph N/A   Overcast
3:55 AM 39.2 °F 33.0 °F 35.6 °F 87% 30.08 in 7.0 mi NNE 9.2 mph - N/A   Overcast
4:15 AM 39.2 °F 33.6 °F 35.6 °F 87% 30.09 in 7.0 mi NE 8.1 mph - N/A   Overcast
4:35 AM 39.2 °F 33.0 °F 35.6 °F 87% 30.09 in 7.0 mi NE 9.2 mph - N/A   Overcast
4:55 AM 39.2 °F 33.0 °F 35.6 °F 87% 30.07 in 7.0 mi NE 9.2 mph - N/A   Overcast
5:15 AM 41.0 °F 35.2 °F 35.6 °F 81% 30.07 in 5.0 mi NE 9.2 mph 16.1 mph N/A   Overcast
5:35 AM 41.0 °F 34.7 °F 37.4 °F 87% 30.07 in 7.0 mi NE 10.4 mph - N/A   Overcast
5:55 AM 41.0 °F 35.2 °F 37.4 °F 87% 30.08 in 5.0 mi NE 9.2 mph - N/A   Overcast
6:15 AM 41.0 °F 34.7 °F 37.4 °F 87% 30.09 in 5.0 mi ENE 10.4 mph - N/A   Overcast
6:35 AM 41.0 °F 33.9 °F 37.4 °F 87% 30.09 in 7.0 mi ENE 12.7 mph - N/A   Overcast
6:55 AM 41.0 °F 35.2 °F 35.6 °F 81% 30.11 in 7.0 mi ENE 9.2 mph - N/A   Overcast
7:15 AM 41.0 °F 34.7 °F 35.6 °F 81% 30.12 in 7.0 mi ENE 10.4 mph - N/A   Overcast
7:35 AM 41.0 °F 35.2 °F 35.6 °F 81% 30.12 in 4.0 mi ENE 9.2 mph - N/A   Overcast
7:55 AM 41.0 °F 34.7 °F 37.4 °F 87% 30.12 in 3.0 mi ENE 10.4 mph - N/A   Overcast
8:35 AM 39.2 °F 32.0 °F 37.4 °F 93% 30.13 in 2.5 mi ENE 11.5 mph - N/A   Overcast
8:55 AM 39.2 °F 32.5 °F 37.4 °F 93% 30.14 in 3.0 mi ENE 10.4 mph - N/A   Overcast
9:35 AM 41.0 °F 34.3 °F 35.6 °F 81% 30.14 in 5.0 mi ENE 11.5 mph 16.1 mph N/A   Overcast
9:55 AM 41.0 °F 33.5 °F 35.6 °F 81% 30.14 in 5.0 mi ENE 13.8 mph - N/A   Overcast
10:15 AM 41.0 °F 33.5 °F 35.6 °F 81% 30.13 in 5.0 mi ENE 13.8 mph - N/A   Haze
10:35 AM 41.0 °F 34.7 °F 35.6 °F 81% 30.14 in 5.0 mi East 10.4 mph 17.3 mph N/A   Haze
10:55 AM 41.0 °F 34.7 °F 35.6 °F 81% 30.15 in 7.0 mi East 10.4 mph - N/A   Overcast
11:15 AM 41.0 °F 33.9 °F 35.6 °F 81% 30.14 in 7.0 mi East 12.7 mph - N/A   Overcast
11:35 AM 41.0 °F 34.7 °F 33.8 °F 76% 30.13 in 7.0 mi ENE 10.4 mph - N/A   Overcast
12:15 PM 39.2 °F 30.8 °F 33.8 °F 81% 30.12 in 7.0 mi East 15.0 mph - N/A   Overcast
12:55 PM 39.2 °F 33.6 °F 33.8 °F 81% 30.14 in 7.0 mi ENE 8.1 mph - N/A   Overcast
1:15 PM 39.2 °F 32.5 °F 33.8 °F 81% 30.13 in 7.0 mi ENE 10.4 mph - N/A   Overcast
1:35 PM 39.2 °F 32.0 °F 33.8 °F 81% 30.14 in 7.0 mi ENE 11.5 mph - N/A   Overcast
1:55 PM 39.2 °F 32.5 °F 33.8 °F 81% 30.14 in 7.0 mi ENE 10.4 mph - N/A   Overcast
2:15 PM 39.2 °F 32.0 °F 33.8 °F 81% 30.12 in 7.0 mi East 11.5 mph - N/A   Overcast
2:55 PM 39.2 °F 32.5 °F 33.8 °F 81% 30.14 in 7.0 mi ENE 10.4 mph 17.3 mph N/A   Overcast
3:15 PM 37.4 °F 29.8 °F 33.8 °F 87% 30.15 in 7.0 mi ENE 11.5 mph 17.3 mph N/A   Overcast
3:35 PM 37.4 °F 32.1 °F 33.8 °F 87% 30.16 in 7.0 mi ENE 6.9 mph - N/A   Overcast
4:35 PM 37.4 °F 32.8 °F 33.8 °F 87% 30.19 in 7.0 mi NE 5.8 mph - N/A   Overcast
4:55 PM 37.4 °F 30.8 °F 33.8 °F 87% 30.18 in 7.0 mi ENE 9.2 mph - N/A   Overcast
5:15 PM 37.4 °F 29.3 °F 33.8 °F 87% 30.17 in 10.0 mi ENE 12.7 mph - N/A   Overcast
5:35 PM 37.4 °F 30.3 °F 33.8 °F 87% 30.15 in 7.0 mi East 10.4 mph - N/A   Overcast
5:55 PM 37.4 °F 30.3 °F 33.8 °F 87% 30.17 in 10.0 mi ENE 10.4 mph - N/A   Overcast
6:15 PM 37.4 °F 32.1 °F 33.8 °F 87% 30.18 in 10.0 mi East 6.9 mph - N/A   Overcast
6:35 PM 37.4 °F 34.9 °F 33.8 °F 87% 30.19 in 10.0 mi NNE 3.5 mph - N/A   Overcast
6:55 PM 37.4 °F 32.8 °F 33.8 °F 87% 30.19 in 10.0 mi NE 5.8 mph - N/A   Overcast
7:15 PM 37.4 °F 32.8 °F 33.8 °F 87% 30.19 in 10.0 mi ENE 5.8 mph - N/A   Overcast
7:35 PM 37.4 °F 33.8 °F 33.8 °F 87% 30.19 in 10.0 mi NE 4.6 mph - N/A   Overcast
7:55 PM 37.4 °F 32.8 °F 33.8 °F 87% 30.16 in 10.0 mi East 5.8 mph - N/A   Overcast
8:15 PM 37.4 °F 32.8 °F 33.8 °F 87% 30.16 in 7.0 mi East 5.8 mph - N/A   Overcast
9:15 PM 39.2 °F 33.6 °F 33.8 °F 81% 30.15 in 7.0 mi ESE 8.1 mph - N/A   Overcast
9:35 PM 39.2 °F 35.0 °F 33.8 °F 81% 30.16 in 7.0 mi East 5.8 mph - N/A   Overcast
9:55 PM 39.2 °F 34.2 °F 33.8 °F 81% 30.15 in 7.0 mi ESE 6.9 mph - N/A   Overcast
10:15 PM 39.2 °F 33.0 °F 33.8 °F 81% 30.16 in 7.0 mi ESE 9.2 mph - N/A   Overcast
10:35 PM 39.2 °F 33.0 °F 33.8 °F 81% 30.16 in 7.0 mi ESE 9.2 mph - N/A   Overcast
10:55 PM 39.2 °F 37.0 °F 33.8 °F 81% 30.17 in 7.0 mi ESE 3.5 mph - N/A   Overcast
11:15 PM 39.2 °F 37.0 °F 33.8 °F 81% 30.17 in 7.0 mi East 3.5 mph - N/A   Overcast
11:35 PM 39.2 °F - 33.8 °F 81% 30.18 in 7.0 mi Calm Calm - N/A   Overcast
11:55 PM 39.2 °F - 33.8 °F 81% 30.18 in 5.0 mi Calm Calm - N/A   Haze